Regional Weather Roundup
Issued by NWS

Home | Current Version | Previous Version | Graphics & Text | Print | Product List | Glossary On
Versions: 1 2 3 4 5 6 7 8 9 10 11 12 13 14 15 16 17 18 19 20 21 22 23 24 25 26 27 28 29 30 31 32 33 34 35 36 37 38 39 40 41 42 43 44 45 46 47 48 49 50
000
ASUS43 KBIS 241010
RWRND
NORTH DAKOTA REGIONAL WEATHER ROUNDUP
NATIONAL WEATHER SERVICE EASTERN NORTH DAKOTA/GRAND FORKS ND
500 AM CDT WED MAY 24 2017

  NOTE: "FAIR" INDICATES FEW OR NO CLOUDS BELOW 12,000 FEET WITH NO
  SIGNIFICANT WEATHER AND/OR OBSTRUCTIONS TO VISIBILITY.

NDZ001>003-009>011-017-241100-
...NORTHWEST NORTH DAKOTA...

CITY           SKY/WX    TMP DP  RH WIND       PRES   REMARKS
WILLISTON      FAIR      53  35  50 S10G22    29.71F
MINOT          FAIR      53  38  56 S14G21    29.79F
MINOT AFB      FAIR      52  38  58 S13       29.78F
$$

NDZ018>021-031>035-040>046-241100-
...SOUTHWEST NORTH DAKOTA...

CITY           SKY/WX    TMP DP  RH WIND       PRES   REMARKS
BISMARCK       FAIR      38  35  89 E5        29.85F WCI  34
DICKINSON      FAIR      41  34  76 S9        29.79F
GARRISON         N/A     44  38  79 S8        29.81F
HETTINGER      FAIR      41  33  73 SE9       29.83F
$$

NDZ004>008-012>016-024-026-027-054-241100-
...NORTHEAST NORTH DAKOTA...

CITY           SKY/WX    TMP DP  RH WIND       PRES   REMARKS
GRAND FORKS    FAIR      39  38  96 CALM      29.86F
GRAND FORKS AF FAIR      38  38  99 CALM      29.86F
DEVILS LAKE    FAIR      46  40  79 SW3       29.85F
$$

NDZ022-023-025-028>030-036>039-047>053-241100-
...SOUTHEAST NORTH DAKOTA...

CITY           SKY/WX    TMP DP  RH WIND       PRES   REMARKS
JAMESTOWN      FOG       34  33  96 N3        29.85F VSB 1/4
FARGO          FAIR      37  37 100 CALM      29.85F FOG
WAHPETON       CLOUDY    45  41  87 CALM      29.85F
$$




USA.gov is the U.S. government's official web portal to all federal, state and local government web resources and services.